Hourly Data Report for October 22, 2016

All times are specified in Local Standard Time (LST). Add 1 hour to adjust for Daylight Saving Time where and when it is observed.

IQALUIT CLIMATE
NUNAVUT

63°44'50.000" N
68°32'40.000" W
33.50 m
2402592
71321
XFB

Download Data

Hourly Data (October 2016)
Hourly Data Report for October 22, 2016
Temp Definition
°C
Dew Point Temp Definition
°C
Rel Hum Definition
%
Wind Dir Definition
10's deg

Wind Spd Definition
km/h
Visibility Definition
km
Stn Press Definition
kPa
Hmdx Definition


Wind Chill Definition


Weather Definition


TIME
00:00 -7.3 -9.6 83 35 10   101.67   -12 LegendNANA
01:00 -7.2 -10.2 79 35 7   101.73   -11 LegendNANA
02:00 -7.7 -9.9 84 32 8   101.76   -12 LegendNANA
03:00 -7.7 -10.1 83 34 7   101.80   -11 LegendNANA
04:00 -7.4 -10.6 78 33 8   101.82   -11 LegendNANA
05:00 -7.5 -10.4 80 34 9   101.88   -12 LegendNANA
06:00 -7.7 -10.3 82 34 9   101.91   -12 LegendNANA
07:00 -7.4 -10.5 79 32 8   101.96   -11 LegendNANA
08:00 -7.6 -9.7 85 33 9   101.98   -12 LegendNANA
09:00 -7.5 -9.4 86 34 11   102.07   -13 LegendNANA
10:00 -7.2 -9.3 85 32 10   102.15   -12 LegendNANA
11:00 -6.7 -9.5 81 34 8   102.19   -11 LegendNANA
12:00 -6.8 -9.7 80 34 9   102.25   -11 LegendNANA
13:00 -7.8 -11.2 77 34 13   102.34   -14 LegendNANA
14:00 -9.6 -12.5 79 31 12   102.39   -15 LegendNANA
15:00 -10.4 -13.2 80 31 14   102.43   -17 LegendNANA
16:00 -10.3 -12.8 82 32 18   102.51   -18 LegendNANA
17:00 -11.6 -13.8 84 28 19   102.57   -20 LegendNANA
18:00 -11.9 -14.2 83 31 16   102.64   -19 LegendNANA
19:00 -12.0 -13.9 85 29 13   102.72   -19 LegendNANA
20:00 -10.6 -12.7 85 32 17   102.73   -18 LegendNANA
21:00 -11.9 -14.1 84 33 18   102.75   -20 LegendNANA
22:00 -13.3 -15.0 87 28 9   102.76   -19 LegendNANA
23:00 -13.4 -15.1 87 33 17   102.83   -21 LegendNANA

Notes on Data Quality.

Legend

  • E = Estimated
  • M = Missing
  • NA = Not Available
  • ‡ = Partner data that is not subject to review by the National Climate Archives
Date modified: